Weather History for Queretaro Airport, Mexico

Change the Weather History Date:

Tuesday, April 2, 2013

  Actual Average Record
Temperature  
Mean Temperature 76 °F -  
Max Temperature 89 °F 80 °F 89 °F (2013)
Min Temperature 64 °F 53 °F 44 °F (2005)
Cooling Degree Days 12    
Growing Degree Days 26 (Base 50)    
Moisture  
Dew Point 40 °F    
Average Humidity 33    
Maximum Humidity 62    
Minimum Humidity 9    
Precipitation  
Precipitation 0.00 in - - ()
Sea Level Pressure  
Sea Level Pressure 30.07 in    
Wind  
Wind Speed 6 mph ()    
Max Wind Speed 23 mph    
Max Gust Speed -    
Visibility 10.2 miles    
Events      
Averages and records for this station are not official NWS values.
T = Trace of Precipitation, MM = Missing Value Source: Averaged Metar Reports

Daily Weather History Graph

Daily Weather History Graph

Search for Another Location

Airport:

Trip Planner

Search our weather history database for the weather conditions in past years. The results will help you decide how hot, cold, wet, or windy it might be!

Date:

Astronomy

Apr. 02, 2013 Rise Set
Actual Time 6:32 AM CST 6:55 PM CST
Civil Twilight 6:10 AM CST 7:17 PM CST
Nautical Twilight 5:44 AM CST 7:43 PM CST
Astronomical Twilight 5:18 AM CST 8:10 PM CST
Moon 12:31 AM CST (4/2) 11:55 AM CST (4/2)
Length of Visible Light 13h 07m
Length of Day
12h 22m
Waning Gibbous, 55% of the Moon is Illuminated
Apr 2
Waning Gibbous
Apr 2
Last Quarter
Apr 10
New
Apr 18
First Quarter
Apr 25
Full

Hourly Weather History & Observations

Time (CST) Temp. Dew Point Humidity Pressure Visibility Wind Dir Wind Speed Gust Speed Precip Events Conditions
12:45 AM 68.0 °F 37.4 °F 33% 30.20 in 7.0 mi NNE 3.5 mph - N/A   Overcast
1:48 AM 62.6 °F 39.2 °F 42% 30.20 in 7.0 mi Calm Calm - N/A   Scattered Clouds
2:47 AM 57.2 °F 41.0 °F 55% 30.19 in 7.0 mi Calm Calm - N/A   Scattered Clouds
3:46 AM 53.6 °F 41.0 °F 62% 30.19 in 7.0 mi SE 3.5 mph - N/A   Scattered Clouds
4:45 AM 53.6 °F 41.0 °F 62% 30.19 in 6.0 mi SSE 3.5 mph - N/A   Mostly Cloudy
5:40 AM 65 °F 38 °F 26% 29.68 in 6 mi SW 4.5 mph - -   Partly Cloudy
5:45 AM 53.6 °F 41.0 °F 62% 30.19 in 6.0 mi East 5.8 mph - N/A   Mostly Cloudy
6:45 AM 55.4 °F 39.2 °F 54% 30.19 in 6.0 mi NNE 3.5 mph - N/A   Mostly Cloudy
7:45 AM 62.6 °F 41.0 °F 45% 30.21 in 7.0 mi Calm Calm - N/A   Scattered Clouds
8:40 AM 68 °F 38 °F 22% 29.75 in 16 mi WNW 6.7 mph - -   Scattered Clouds
8:45 AM 71.6 °F 37.4 °F 29% 30.22 in 10.0 mi WNW 4.6 mph - N/A   Scattered Clouds
9:55 AM 75.2 °F 35.6 °F 24% 30.22 in 10.0 mi West 5.8 mph - N/A   Scattered Clouds
10:45 AM 80.6 °F 32.0 °F 17% 30.22 in 10.0 mi SSW 11.5 mph - N/A   Partly Cloudy
11:40 AM 84 °F 38 °F 11% 29.70 in 16 mi WNW 17.9 mph - -   Scattered Clouds
11:45 AM 82.4 °F 30.2 °F 15% 30.21 in 12.0 mi West 12.7 mph - N/A   Partly Cloudy
12:45 PM 86.0 °F 26.6 °F 12% 30.18 in 12.0 mi West 17.3 mph - N/A   Partly Cloudy
1:45 PM 86.0 °F 26.6 °F 12% 30.13 in 12.0 mi West 23.0 mph - N/A   Scattered Clouds
2:45 PM 69 °F 32 °F 15% 29.55 in 16 mi WNW 8.9 mph - -   Partly Cloudy
2:45 PM 87.8 °F 41.0 °F 19% 30.12 in 12.0 mi West 13.8 mph - N/A   Scattered Clouds
3:45 PM 87.8 °F 41.0 °F 19% 30.10 in 12.0 mi West 21.9 mph - N/A   Scattered Clouds
4:45 PM 84.2 °F 44.6 °F 25% 30.08 in 12.0 mi WSW 15.0 mph - N/A   Scattered Clouds
5:45 PM 84.2 °F 44.6 °F 25% 30.08 in 10.0 mi WSW 13.8 mph - N/A   Scattered Clouds
5:50 PM 86 °F 36 °F 9% 29.45 in 16 mi West 6.7 mph - -   Partly Cloudy
6:45 PM 80.6 °F 46.4 °F 30% 30.08 in 10.0 mi WSW 12.7 mph - N/A   Scattered Clouds
7:45 PM 77.0 °F 50.0 °F 39% 30.10 in 10.0 mi SW 12.7 mph - N/A   Scattered Clouds
8:45 PM 71.6 °F 50.0 °F 46% 30.14 in 10.0 mi SW 6.9 mph - N/A   Scattered Clouds
9:45 PM 69.8 °F 46.4 °F 43% 30.16 in 10.0 mi West 6.9 mph - N/A   Scattered Clouds
10:45 PM 68.0 °F 48.2 °F 49% 30.18 in 10.0 mi West 4.6 mph - N/A   Scattered Clouds
11:45 PM 64.4 °F 42.8 °F 45% 30.18 in 10.0 mi West 9.2 mph - N/A   Scattered Clouds